Forside
METAR-TAF:

METAR-TAF

Lufthavne :

Ford Airport

Iron Mountain / Kingsford, Michigan, USA

Breddekreds: 45-48-51N, længdekreds: 088-06-32W, højde: 360 m

Aktuelle vejr

Denne rapport blev lavet for 24 minutter siden, kl. 14:54 UTC
Vind 11 kt fra vest med vindstød på up til 18 kt
Temperatur 11°C
Fugtighed 50%
Tryk 1005 hPa
Sigt: 16.1 km
skyfri

METAR: KIMT 081454Z AUTO 28011G18KT 10SM CLR 11/01 A2968 RMK AO2 SLP059 T01060006 50000

Tid: 11:18 (15:18 UTC)


TAF: fraværende

Vejrobservationer og prognoser fra mere end 4000 lufthavne (METAR og TAF).

De gule og røde prikker repræsenterer de meteorologiske stationer.

Flyt musen over at se navnet på stationen.

Så klik over at se vejr observationer og prognoser.

At skifte det kort: Klik på de grønne knapper med et sort kors for at zoome ind; på den grønne knap med en bindestreg for at zoome ud; eller på de grønne pile for tilstødende kort.


METAR-TAF: